Time,TemperatureF,DewpointF,PressureIn,WindDirection,WindDirectionDegrees,WindSpeedMPH,WindSpeedGustMPH,Humidity,HourlyPrecipIn,Conditions,Clouds,dailyrainin,SoftwareType,DateUTC
2013-02-08 00:13:00,46.4,28.2,30.10,North,0,0.0,9.0,49,0.00,,,0.00,meteohub,2013-02-07 23:13:00,
2013-02-08 00:29:00,46.0,28.0,30.09,NNW,338,1.0,7.0,49,0.00,,,0.00,meteohub,2013-02-07 23:29:00,
2013-02-08 00:44:00,45.7,29.1,30.10,West,270,1.0,3.0,52,0.00,,,0.00,meteohub,2013-02-07 23:44:00,
2013-02-08 00:59:00,44.8,29.5,30.09,West,270,0.0,2.0,54,0.00,,,0.00,meteohub,2013-02-07 23:59:00,
2013-02-08 01:15:00,44.8,30.0,30.09,West,270,2.0,-999.0,55,0.00,,,0.00,meteohub,2013-02-08 00:15:00,
2013-02-08 01:30:00,44.8,30.4,30.09,NW,315,3.0,4.0,56,0.00,,,0.00,meteohub,2013-02-08 00:30:00,
2013-02-08 01:46:00,44.8,30.6,30.08,NW,315,1.0,6.0,57,0.00,,,0.00,meteohub,2013-02-08 00:46:00,
2013-02-08 02:01:00,44.8,30.9,30.08,NNW,338,1.0,4.0,58,0.00,,,0.00,meteohub,2013-02-08 01:01:00,
2013-02-08 02:17:00,44.8,30.9,30.07,NNW,338,2.0,3.0,58,0.00,,,0.00,meteohub,2013-02-08 01:17:00,
2013-02-08 02:33:00,45.0,31.1,30.07,NW,315,4.0,5.0,58,0.00,,,0.00,meteohub,2013-02-08 01:33:00,
2013-02-08 02:48:00,45.3,31.5,30.06,North,0,2.0,5.0,58,0.00,,,0.00,meteohub,2013-02-08 01:48:00,
2013-02-08 03:04:00,45.5,31.5,30.06,NNW,338,2.0,5.0,58,0.00,,,0.00,meteohub,2013-02-08 02:04:00,
2013-02-08 03:19:00,45.3,31.8,30.05,NW,315,0.0,1.0,59,0.00,,,0.00,meteohub,2013-02-08 02:19:00,
2013-02-08 03:35:00,45.0,32.2,30.05,NW,315,0.0,-999.0,60,0.00,,,0.00,meteohub,2013-02-08 02:35:00,
2013-02-08 03:50:00,44.2,32.4,30.04,WSW,248,2.0,3.0,63,0.00,,,0.00,meteohub,2013-02-08 02:50:00,
2013-02-08 04:06:00,43.5,33.6,30.03,WSW,248,0.0,3.0,68,0.00,,,0.00,meteohub,2013-02-08 03:06:00,
2013-02-08 04:21:00,43.3,33.8,30.03,WSW,248,0.0,0.0,69,0.00,,,0.00,meteohub,2013-02-08 03:21:00,
2013-02-08 04:37:00,42.6,34.2,30.01,WSW,248,0.0,2.0,72,0.00,,,0.00,meteohub,2013-02-08 03:37:00,
2013-02-08 04:53:00,42.6,34.5,30.01,WSW,248,0.0,0.0,73,0.00,,,0.00,meteohub,2013-02-08 03:53:00,
2013-02-08 05:08:00,41.5,33.8,30.01,WSW,248,1.0,2.0,74,0.00,,,0.00,meteohub,2013-02-08 04:08:00,
2013-02-08 05:23:00,42.1,34.7,30.01,West,270,0.0,0.0,75,0.00,,,0.00,meteohub,2013-02-08 04:23:00,
2013-02-08 05:39:00,42.1,34.7,30.01,West,270,0.0,2.0,75,0.00,,,0.00,meteohub,2013-02-08 04:39:00,
2013-02-08 05:54:00,42.1,34.7,30.01,West,270,0.0,1.0,75,0.00,,,0.00,meteohub,2013-02-08 04:54:00,
2013-02-08 06:10:00,41.7,34.3,29.99,WSW,248,2.0,2.0,75,0.00,,,0.00,meteohub,2013-02-08 05:10:00,
2013-02-08 06:25:00,42.1,34.3,29.99,WSW,248,0.0,2.0,74,0.00,,,0.00,meteohub,2013-02-08 05:25:00,
2013-02-08 06:41:00,41.7,34.0,29.99,WSW,248,0.0,2.0,74,0.00,,,0.00,meteohub,2013-02-08 05:41:00,
2013-02-08 06:56:00,41.7,34.3,29.98,WSW,248,0.0,0.0,75,0.00,,,0.00,meteohub,2013-02-08 05:56:00,
2013-02-08 07:11:00,42.1,34.3,29.98,WSW,248,2.0,4.0,73,0.00,,,0.00,meteohub,2013-02-08 06:11:00,
2013-02-08 07:27:00,41.4,35.4,29.99,West,270,0.0,8.0,79,0.00,,,0.00,meteohub,2013-02-08 06:27:00,
2013-02-08 07:42:00,40.8,35.4,29.99,West,270,1.0,3.0,81,0.00,,,0.00,meteohub,2013-02-08 06:42:00,
2013-02-08 07:57:00,41.0,35.4,29.98,West,270,3.0,6.0,80,0.00,,,0.00,meteohub,2013-02-08 06:57:00,
2013-02-08 08:12:00,41.2,35.4,29.98,WSW,248,2.0,3.0,80,0.00,,,0.00,meteohub,2013-02-08 07:12:00,
2013-02-08 08:28:00,41.7,36.7,29.98,WSW,248,0.0,4.0,82,0.01,,,0.01,meteohub,2013-02-08 07:28:00,
2013-02-08 08:44:00,41.7,36.7,29.97,WSW,248,0.0,2.0,82,0.01,,,0.01,meteohub,2013-02-08 07:44:00,
2013-02-08 09:00:00,42.6,37.2,29.98,North,0,2.0,5.0,80,0.01,,,0.01,meteohub,2013-02-08 08:00:00,
2013-02-08 09:15:00,44.4,37.6,29.97,NW,315,5.0,7.0,77,0.00,,,0.01,meteohub,2013-02-08 08:15:00,
2013-02-08 09:31:00,46.2,36.7,29.97,NW,315,11.0,13.0,69,0.00,,,0.01,meteohub,2013-02-08 08:31:00,
2013-02-08 09:47:00,46.6,37.8,29.97,WNW,293,6.0,15.0,71,0.00,,,0.01,meteohub,2013-02-08 08:47:00,
2013-02-08 10:02:00,46.8,37.6,29.97,North,0,4.0,14.0,70,0.00,,,0.01,meteohub,2013-02-08 09:02:00,
2013-02-08 10:17:00,47.1,37.4,29.97,NW,315,9.0,13.0,69,0.00,,,0.01,meteohub,2013-02-08 09:17:00,
2013-02-08 10:33:00,47.5,38.5,29.97,West,270,2.0,10.0,71,0.00,,,0.01,meteohub,2013-02-08 09:33:00,
2013-02-08 10:49:00,47.7,37.6,29.98,North,0,5.0,14.0,68,0.00,,,0.01,meteohub,2013-02-08 09:49:00,
2013-02-08 11:04:00,47.7,36.9,29.97,West,270,5.0,12.0,66,0.00,,,0.01,meteohub,2013-02-08 10:04:00,
2013-02-08 11:20:00,47.8,37.0,29.97,WNW,293,6.0,15.0,66,0.00,,,0.01,meteohub,2013-02-08 10:20:00,
2013-02-08 11:35:00,47.7,36.9,29.97,NNE,23,4.0,15.0,66,0.00,,,0.01,meteohub,2013-02-08 10:35:00,
2013-02-08 11:51:00,48.2,37.4,29.97,NW,315,5.0,12.0,66,0.00,,,0.01,meteohub,2013-02-08 10:51:00,
2013-02-08 12:07:00,47.8,36.9,29.97,NW,315,5.0,10.0,65,0.00,,,0.01,meteohub,2013-02-08 11:07:00,
2013-02-08 12:22:00,48.2,37.0,29.97,North,0,4.0,13.0,65,0.00,,,0.01,meteohub,2013-02-08 11:22:00,
2013-02-08 12:38:00,49.5,34.9,29.96,North,0,9.0,16.0,57,0.00,,,0.01,meteohub,2013-02-08 11:38:00,
2013-02-08 12:53:00,49.6,34.5,29.96,North,0,8.0,14.0,56,0.00,,,0.01,meteohub,2013-02-08 11:53:00,
2013-02-08 13:09:00,49.8,36.5,29.94,NW,315,7.0,17.0,60,0.00,,,0.01,meteohub,2013-02-08 12:09:00,
2013-02-08 13:24:00,49.6,37.4,29.94,North,0,6.0,10.0,62,0.00,,,0.01,meteohub,2013-02-08 12:24:00,
2013-02-08 13:40:00,49.3,36.9,29.93,WNW,293,5.0,11.0,62,0.00,,,0.01,meteohub,2013-02-08 12:40:00,
2013-02-08 13:55:00,49.5,37.4,29.93,NW,315,7.0,12.0,63,0.00,,,0.01,meteohub,2013-02-08 12:55:00,
2013-02-08 14:11:00,49.5,37.8,29.93,NNW,338,5.0,8.0,63,0.00,,,0.01,meteohub,2013-02-08 13:11:00,
2013-02-08 14:26:00,50.2,37.6,29.92,North,0,4.0,7.0,62,0.00,,,0.01,meteohub,2013-02-08 13:26:00,
2013-02-08 14:42:00,49.8,37.4,29.91,North,0,4.0,9.0,62,0.00,,,0.01,meteohub,2013-02-08 13:42:00,
2013-02-08 14:57:00,50.5,37.9,29.91,NNW,338,4.0,10.0,62,0.00,,,0.01,meteohub,2013-02-08 13:57:00,
2013-02-08 15:13:00,49.5,37.8,29.91,NNW,338,2.0,9.0,64,0.00,,,0.01,meteohub,2013-02-08 14:13:00,
2013-02-08 15:28:00,48.9,38.1,29.91,NW,315,7.0,10.0,66,0.00,,,0.01,meteohub,2013-02-08 14:28:00,
2013-02-08 15:44:00,48.6,38.1,29.90,NNW,338,6.0,11.0,67,0.00,,,0.01,meteohub,2013-02-08 14:44:00,
2013-02-08 15:59:00,48.0,37.2,29.91,North,0,7.0,12.0,66,0.00,,,0.01,meteohub,2013-02-08 14:59:00,
2013-02-08 16:15:00,47.7,36.9,29.91,NW,315,6.0,11.0,66,0.00,,,0.01,meteohub,2013-02-08 15:15:00,
2013-02-08 16:31:00,47.8,37.0,29.91,NW,315,3.0,8.0,66,0.00,,,0.01,meteohub,2013-02-08 15:31:00,
2013-02-08 16:49:00,47.7,36.9,29.91,NW,315,4.0,8.0,66,0.00,,,0.01,meteohub,2013-02-08 15:49:00,
2013-02-08 17:04:00,47.8,37.0,29.91,North,0,3.0,7.0,66,0.00,,,0.01,meteohub,2013-02-08 16:04:00,
2013-02-08 17:20:00,47.7,36.5,29.91,WNW,293,3.0,6.0,65,0.00,,,0.01,meteohub,2013-02-08 16:20:00,
2013-02-08 17:35:00,47.3,36.1,29.91,WNW,293,4.0,6.0,65,0.00,,,0.01,meteohub,2013-02-08 16:35:00,
2013-02-08 17:50:00,46.6,36.1,29.91,NNW,338,2.0,8.0,67,0.00,,,0.01,meteohub,2013-02-08 16:50:00,
2013-02-08 18:06:00,46.4,36.3,29.91,WNW,293,2.0,4.0,67,0.00,,,0.01,meteohub,2013-02-08 17:06:00,
2013-02-08 18:21:00,46.2,36.3,29.92,NW,315,3.0,5.0,68,0.00,,,0.01,meteohub,2013-02-08 17:21:00,
2013-02-08 18:36:00,45.9,36.0,29.92,WNW,293,1.0,4.0,68,0.00,,,0.01,meteohub,2013-02-08 17:36:00,
2013-02-08 18:52:00,45.7,36.1,29.92,NW,315,2.0,7.0,69,0.00,,,0.01,meteohub,2013-02-08 17:52:00,
2013-02-08 19:07:00,45.1,36.0,29.93,NW,315,0.0,3.0,70,0.00,,,0.01,meteohub,2013-02-08 18:07:00,
2013-02-08 19:25:00,44.8,36.0,29.93,WNW,293,2.0,3.0,71,0.00,,,0.01,meteohub,2013-02-08 18:25:00,
2013-02-08 19:40:00,43.5,35.4,29.94,ENE,68,0.0,1.0,73,0.00,,,0.01,meteohub,2013-02-08 18:40:00,
2013-02-08 19:55:00,43.3,35.6,29.94,ENE,68,0.0,0.0,74,0.00,,,0.01,meteohub,2013-02-08 18:55:00,
2013-02-08 20:11:00,43.3,35.6,29.95,ENE,68,1.0,4.0,74,0.00,,,0.01,meteohub,2013-02-08 19:11:00,
2013-02-08 20:27:00,41.5,34.9,29.96,NE,45,0.0,2.0,77,0.00,,,0.01,meteohub,2013-02-08 19:27:00,
2013-02-08 20:42:00,41.2,35.2,29.96,NE,45,0.0,2.0,79,0.00,,,0.01,meteohub,2013-02-08 19:42:00,
2013-02-08 20:58:00,41.2,35.2,29.96,NNW,338,0.0,2.0,79,0.00,,,0.01,meteohub,2013-02-08 19:58:00,
2013-02-08 21:13:00,41.5,35.6,29.96,NNW,338,0.0,0.0,79,0.00,,,0.01,meteohub,2013-02-08 20:13:00,
2013-02-08 21:29:00,41.9,35.2,29.98,NE,45,1.0,3.0,77,0.00,,,0.01,meteohub,2013-02-08 20:29:00,
2013-02-08 21:44:00,40.3,34.5,29.98,NE,45,0.0,1.0,80,0.00,,,0.01,meteohub,2013-02-08 20:44:00,
2013-02-08 22:00:00,40.5,36.3,29.98,ENE,68,3.0,8.0,85,0.00,,,0.01,meteohub,2013-02-08 21:00:00,
2013-02-08 22:15:00,41.2,37.0,29.99,ENE,68,2.0,5.0,85,0.00,,,0.01,meteohub,2013-02-08 21:15:00,
2013-02-08 22:31:00,41.2,37.0,29.99,NE,45,3.0,7.0,85,0.00,,,0.01,meteohub,2013-02-08 21:31:00,
2013-02-08 22:46:00,41.0,36.9,29.99,ENE,68,2.0,4.0,85,0.00,,,0.01,meteohub,2013-02-08 21:46:00,
2013-02-08 23:02:00,40.3,36.5,30.00,NE,45,0.0,3.0,86,0.00,,,0.01,meteohub,2013-02-08 22:02:00,
2013-02-08 23:17:00,39.7,36.1,30.00,ENE,68,0.0,0.0,87,0.00,,,0.01,meteohub,2013-02-08 22:17:00,
2013-02-08 23:33:00,39.7,36.5,30.00,ENE,68,0.0,2.0,87,0.00,,,0.01,meteohub,2013-02-08 22:33:00,
2013-02-08 23:48:00,41.0,37.2,30.01,NNE,23,3.0,8.0,86,0.00,,,0.01,meteohub,2013-02-08 22:48:00,